Regional Weather Roundup
Issued by NWS Glasgow, MT

Home | Current Version | Previous Version | Text Only | Print | Product List | Glossary On
Versions: 1 2 3 4 5 6 7 8 9 10 11 12 13 14 15 16 17 18 19 20 21 22 23 24 25 26 27 28 29 30 31 32 33 34 35 36 37 38 39 40 41 42 43 44 45 46 47 48 49 50
000
ASUS45 KGGW 261015
RWRGGW
HOURLY REGIONAL WEATHER ROUNDUP FOR NORTHEAST MONTANA
NATIONAL WEATHER SERVICE GLASGOW MONTANA
400 AM MDT MON SEP 26 2016

NOTE: "FAIR" INDICATES FEW OR NO CLOUDS BELOW 12,000 FEET WITH NO
SIGNIFICANT WEATHER AND/OR OBSTRUCTIONS TO VISISBILITY.

NORTHEAST MONTANA


CITY           SKY/WX    TMP DP  RH WIND       PRES   REMARKS
GLASGOW        CLEAR     40  37  89 MISG      30.22R
PLENTYWOOD       N/A     41  33  73 NW6         N/A
WOLF POINT     CLEAR     38  37  97 CALM      30.22S
JORDAN           N/A     43  39  86 NW7       30.23S
WINNETT          N/A     47  41  80 S5          N/A
SIDNEY         CLEAR     38  36  92 CALM      30.22R
GLENDIVE       CLEAR     44  38  79 S5        30.22
MALTA            N/A     44  40  85 SW5         N/A
OPHEIM           N/A     50  27  40 CALM      30.05

FORT PECK REPORTS


CITY           SKY/WX    TMP DP  RH WIND       PRES   REMARKS
FORT PECK        N/A     47  39  74 NW5         N/A
THE PINES        N/A     51  43  74 CALM        N/A

SOUTHEAST MONTANA


CITY           SKY/WX    TMP DP  RH WIND       PRES   REMARKS
BILLINGS       PTCLDY    54  42  64 SW16      30.33S
MILES CITY     CLEAR     45  41  86 S5        30.24F
BAKER          CLEAR     40  36  86 CALM      30.25S
LIVINGSTON     CLEAR     47  39  74 NW7       30.38S

CENTRAL MONTANA


CITY           SKY/WX    TMP DP  RH WIND       PRES   REMARKS
HAVRE          CLEAR     44  41  89 SW10      30.27S
LEWISTOWN      CLEAR     46  40  79 SW10      30.34S
GREAT FALLS    CLOUDY    48  41  76 SW12      30.33S
CUT BANK       CLEAR     47  40  76 NW9       30.30S
HELENA         CLEAR     52  41  66 SW3       30.36S
BUTTE          CLEAR     36  34  92 E5        30.45F
BOZEMAN        CLEAR     40  37  89 SE6       30.41S

WESTERN MONTANA


CITY           SKY/WX    TMP DP  RH WIND       PRES   REMARKS
MISSOULA       CLEAR     43  41  93 N5        30.42S
KALISPELL      NOT AVBL

NORTH DAKOTA


CITY           SKY/WX    TMP DP  RH WIND       PRES   REMARKS
WILLISTON      CLEAR     39  34  82 E5        30.19F
DICKINSON      CLEAR     40  34  79 NW5       30.19S
MINOT          CLEAR     47  34  60 W14       30.10F
BISMARCK       CLEAR     40  34  79 W7        30.16S

SOUTHERN SASKATCHEWAN


CITY           SKY/WX    TMP DP  RH WIND       PRES   REMARKS
REGINA         CLEAR     34  30  86 W7        30.15S
MOOSE JAW      CLEAR     36  32  87 W7        30.19
ESTEVAN        NOT AVBL
SWIFT CURRENT  CLEAR     41  34  75 SW12      30.19F




USA.gov is the U.S. government's official web portal to all federal, state and local government web resources and services.